EA1HLH-13 Weather Reports


time (UTC)temp
C
wind
direction
speed
KPH
gust
KPH
rain 1hr
cm
rain 24hr
cm
rain mn
cm
humidity
%
barometer
mb
20260503050221 11 212 0.0 0.0 0.03 3.89 0.30 99 1012.1
20260503045720 11 212 0.0 0.0 0.00 3.86 0.28 99 1012.2
20260503045220 11 212 0.0 0.0 0.00 3.86 0.28 99 1012.1
20260503044720 11 212 0.0 0.0 0.00 3.86 0.28 99 1012.2
20260503044220 11 212 0.0 0.0 0.00 3.86 0.28 99 1012.1
20260503043720 11 212 0.0 0.0 0.00 3.86 0.28 99 1012.2
20260503043220 11 198 0.0 0.0 0.00 3.86 0.28 99 1012.2
20260503042720 11 198 0.0 0.0 0.00 3.86 0.28 99 1012.2
20260503042220 11 198 0.0 0.0 0.00 3.86 0.28 99 1012.2
20260503041720 11 198 0.0 0.0 0.00 3.86 0.28 99 1012.3
20260503041220 11 198 0.0 0.0 0.00 3.86 0.28 99 1012.3
20260503040720 11 198 0.0 0.0 0.00 3.86 0.28 99 1012.3
20260503040220 11 198 0.0 0.0 0.00 3.86 0.28 99 1012.3
20260503035719 11 198 0.0 0.0 0.00 3.86 0.28 99 1012.3
20260503035219 11 198 0.0 0.0 0.00 3.86 0.28 99 1012.4
20260503034719 11 198 0.0 0.0 0.00 3.86 0.28 99 1012.3
20260503034219 11 198 0.0 0.0 0.00 3.86 0.28 99 1012.4
20260503033721 11 198 0.0 0.0 0.00 3.86 0.28 99 1012.4
20260503033220 11 198 0.0 0.0 0.00 3.86 0.28 99 1012.5
20260503032720 11 198 0.0 0.0 0.00 3.86 0.28 99 1012.5
20260503032220 11 133 0.0 1.6 0.00 3.86 0.28 99 1012.5
20260503031719 11 124 0.0 0.0 0.00 3.86 0.28 99 1012.5
20260503031219 11 124 0.0 0.0 0.00 3.86 0.28 99 1012.5
20260503030719 11 106 0.0 0.0 0.00 3.86 0.28 99 1012.6
20260503030219 11 150 0.0 0.0 0.00 3.86 0.28 99 1012.6
20260503025721 11 150 0.0 0.0 0.00 3.86 0.28 99 1012.6
20260503025220 11 150 0.0 0.0 0.00 3.86 0.28 99 1012.7
20260503024720 11 150 0.0 0.0 0.00 3.86 0.28 99 1012.7
20260503024219 11 150 0.0 0.0 0.00 3.86 0.28 99 1012.6
20260503023719 11 135 0.0 0.0 0.00 3.86 0.28 99 1012.6
20260503023219 11 124 0.0 0.0 0.00 3.86 0.28 99 1012.6
20260503022719 11 207 0.0 0.0 0.00 3.86 0.28 99 1012.6
20260503022219 11 207 0.0 0.0 0.00 3.86 0.28 99 1012.6
20260503021719 11 207 0.0 0.0 0.00 3.86 0.28 99 1012.7
20260503021219 11 207 0.0 0.0 0.00 3.86 0.28 99 1012.8
20260503020721 11 207 0.0 0.0 0.00 3.86 0.28 99 1012.7
20260503020220 11 207 0.0 0.0 0.00 3.86 0.28 99 1012.8
20260503015720 11 207 0.0 0.0 0.00 3.86 0.28 99 1012.7
20260503015220 11 207 0.0 0.0 0.03 3.86 0.28 99 1012.9
20260503014720 11 207 0.0 0.0 0.05 3.86 0.28 99 1012.9
20260503014220 11 207 0.0 0.0 0.08 3.86 0.28 99 1013.0
20260503013720 11 207 0.0 0.0 0.08 3.86 0.28 99 1013.0
20260503013220 11 207 0.0 0.0 0.08 3.86 0.28 99 1013.0
20260503012720 11 207 0.0 0.0 0.08 3.86 0.28 99 1013.1
20260503012219 11 207 0.0 0.0 0.08 3.86 0.28 99 1013.1
20260503011719 11 207 0.0 0.0 0.08 3.86 0.28 99 1013.2
20260503011219 11 207 0.0 0.0 0.08 3.86 0.28 99 1013.2
20260503010719 11 207 0.0 0.0 0.08 3.86 0.28 99 1013.3
20260503010219 11 207 0.0 0.0 0.08 3.86 0.28 99 1013.3
20260503005719 11 208 0.0 0.0 0.08 3.86 0.28 99 1013.3
20260503005219 11 288 1.6 1.6 0.05 3.84 0.25 99 1013.3
20260503004719 11 255 1.6 3.2 0.05 3.81 0.23 99 1013.4
20260503004219 11 274 1.6 1.6 0.00 3.78 0.20 99 1013.5
20260503003719 12 264 1.6 3.2 0.00 3.78 0.20 99 1013.4
20260503003221 12 266 0.0 1.6 0.00 3.78 0.20 99 1013.5
20260503002721 12 271 0.0 3.2 0.00 3.78 0.20 99 1013.5
20260503002221 12 269 1.6 3.2 0.00 3.78 0.20 99 1013.5
20260503001720 12 252 0.0 1.6 0.00 3.78 0.20 99 1013.5
20260503001220 12 252 0.0 0.0 0.00 3.78 0.20 99 1013.7
20260503000720 12 252 0.0 0.0 0.00 3.78 0.20 99 1013.7
20260503000220 12 252 0.0 0.0 0.00 3.78 0.20 99 1013.7
20260502235720 12 252 0.0 0.0 0.03 3.78 0.20 99 1013.7
20260502235220 12 252 0.0 0.0 0.03 3.78 0.20 99 1013.8
20260502234720 12 252 0.0 0.0 0.03 3.78 0.20 99 1013.8
20260502234220 12 252 0.0 0.0 0.03 3.78 0.20 99 1013.8
20260502233719 12 252 0.0 0.0 0.03 3.78 0.20 99 1013.9
20260502233219 12 252 0.0 0.0 0.05 3.78 0.20 99 1013.9
20260502232719 12 252 0.0 0.0 0.10 3.78 0.20 99 1013.9
20260502232219 12 253 0.0 0.0 0.15 3.78 0.20 99 1013.8
20260502231719 12 262 0.0 0.0 0.15 3.78 0.20 99 1013.9
20260502231220 12 262 0.0 0.0 0.20 3.78 0.20 99 1013.9
20260502230720 12 262 0.0 0.0 0.20 3.78 0.20 99 1014.0
20260502230220 12 266 0.0 0.0 0.20 3.78 0.20 99 1014.0
20260502225720 12 266 0.0 0.0 0.00 3.76 0.18 99 1014.0
20260502225219 12 266 0.0 0.0 0.00 3.76 0.18 99 1014.0
20260502224719 12 266 0.0 0.0 0.00 3.76 0.18 99 1014.0
20260502224220 12 266 0.0 0.0 0.00 3.76 0.18 99 1014.0
20260502223720 12 265 0.0 0.0 0.00 3.76 0.18 99 1014.0
20260502223220 12 261 0.0 0.0 0.00 3.73 0.15 99 1014.1
20260502222720 12 261 0.0 0.0 0.00 3.68 0.10 99 1014.1
20260502222220 12 256 1.6 1.6 0.00 3.63 0.05 99 1014.0
20260502221720 12 271 3.2 3.2 0.00 3.63 0.05 99 1014.1
20260502221220 12 287 1.6 3.2 0.00 3.58 0.00 99 1014.1
20260502220720 12 271 0.0 1.6 0.00 3.58 0.00 99 1014.0
20260502220220 12 164 0.0 0.0 0.00 3.58 0.00 99 1014.0
20260502215720 12 136 0.0 0.0 0.03 3.58 3.58 99 1014.1
20260502215220 12 136 0.0 0.0 0.03 3.58 3.58 99 1014.2
20260502214720 12 136 0.0 0.0 0.00 3.56 3.56 99 1014.2
20260502214220 12 136 0.0 0.0 0.00 3.56 3.56 99 1014.2
20260502213720 12 136 0.0 0.0 0.00 3.56 3.56 99 1014.2
20260502213220 12 136 0.0 0.0 0.00 3.56 3.56 99 1014.2
20260502212720 12 136 0.0 0.0 0.00 3.56 3.56 99 1014.2
20260502212220 12 136 0.0 0.0 0.00 3.56 3.56 99 1014.2
20260502211719 12 136 0.0 0.0 0.00 3.56 3.56 99 1014.1
20260502211219 12 136 0.0 0.0 0.00 3.56 3.56 99 1014.2
20260502210719 12 135 0.0 1.6 0.00 3.56 3.56 99 1014.2
20260502210219 12 136 0.0 0.0 0.00 3.56 3.56 99 1014.1
20260502205719 12 136 0.0 0.0 0.00 3.56 3.56 99 1014.1
20260502205219 12 136 0.0 0.0 0.00 3.56 3.56 99 1014.1
20260502204719 12 136 0.0 0.0 0.00 3.56 3.56 99 1014.1
20260502204221 12 136 0.0 0.0 0.00 3.56 3.56 99 1014.1
20260502203720 12 280 0.0 0.0 0.00 3.56 3.56 99 1014.0
20260502203220 12 278 0.0 0.0 0.00 3.56 3.56 99 1014.1
20260502202720 12 278 0.0 0.0 0.00 3.56 3.56 99 1014.0
20260502202220 12 277 0.0 0.0 0.00 3.56 3.56 99 1013.9
20260502201720 12 277 0.0 0.0 0.00 3.56 3.56 99 1013.9
20260502201219 12 277 0.0 0.0 0.00 3.56 3.56 99 1013.8
20260502200719 12 277 0.0 0.0 0.00 3.56 3.56 99 1013.7
20260502200221 12 277 0.0 0.0 0.00 3.56 3.56 99 1013.6
20260502195721 12 277 0.0 0.0 0.00 3.56 3.56 99 1013.7
20260502195220 12 277 0.0 0.0 0.00 3.56 3.56 99 1013.8
20260502194720 12 277 0.0 0.0 0.00 3.56 3.56 99 1013.8
20260502194219 12 277 0.0 0.0 0.00 3.56 3.56 99 1013.7
20260502193719 12 277 0.0 0.0 0.00 3.56 3.56 99 1013.7
20260502193219 12 278 0.0 0.0 0.00 3.56 3.56 99 1013.7
20260502192719 12 278 0.0 0.0 0.00 3.56 3.56 99 1013.7
20260502192219 12 276 0.0 4.8 0.00 3.56 3.56 99 1013.6
20260502191720 12 278 0.0 1.6 0.00 3.56 3.56 99 1013.7
20260502191220 12 276 0.0 0.0 0.03 3.56 3.56 99 1013.7
20260502190720 12 260 0.0 1.6 0.13 3.56 3.56 99 1013.6
20260502190220 12 272 0.0 1.6 0.18 3.56 3.56 99 1013.6
20260502185720 12 280 3.2 4.8 0.23 3.56 3.56 99 1013.6
20260502185220 12 270 3.2 4.8 0.23 3.56 3.56 99 1013.6
20260502184720 12 267 1.6 3.2 0.23 3.56 3.56 99 1013.6
20260502184220 12 270 3.2 4.8 0.28 3.56 3.56 99 1013.5
20260502183719 12 291 3.2 4.8 0.28 3.56 3.56 99 1013.5
20260502183219 12 288 8.0 9.7 0.38 3.56 3.56 99 1013.4
20260502182719 12 287 9.7 12.9 0.43 3.56 3.56 99 1013.4
20260502182219 12 293 3.2 4.8 0.43 3.56 3.56 99 1013.4
20260502181719 12 293 11.3 12.9 0.43 3.56 3.56 99 1013.5
20260502181219 12 299 8.0 9.7 0.41 3.53 3.53 99 1013.5
20260502180719 12 297 4.8 16.1 0.30 3.43 3.43 99 1013.4
20260502180220 12 302 1.6 3.2 0.23 3.38 3.38 99 1013.4
20260502170220 12 87 1.6 3.2 0.84 3.15 3.15 99 1013.7
20260502164219 13 278 1.6 3.2 0.53 2.84 2.84 99 1013.5
20260502163719 13 294 8.0 9.7 0.46 2.77 2.77 99 1013.5
20260502163220 13 295 0.0 0.0 0.23 2.54 2.54 99 1013.4
20260502162719 13 333 0.0 0.0 0.05 2.34 2.34 99 1013.6
20260502162220 13 347 0.0 0.0 0.03 2.31 2.31 99 1013.5
20260502161719 13 348 0.0 0.0 0.15 2.31 2.31 99 1013.6
20260502161220 12 344 0.0 0.0 0.15 2.31 2.31 99 1013.5
20260502160719 13 355 3.2 4.8 0.15 2.31 2.31 99 1013.6
20260502160219 13 2 4.8 9.7 0.15 2.31 2.31 99 1013.5
20260502152219 13 2 0.0 1.6 0.15 2.29 2.29 98 1013.8
20260502151718 13 296 4.8 8.0 0.05 2.16 2.16 98 1013.8
20260502151218 13 305 8.0 9.7 0.05 2.16 2.16 98 1013.9
20260502150718 13 287 4.8 8.0 0.05 2.16 2.16 98 1014.0
20260502150218 13 341 4.8 8.0 0.15 2.16 2.16 99 1014.1
20260502130718 13 104 0.0 1.6 0.71 1.35 1.35 96 1014.7
20260502130218 13 288 1.6 4.8 0.71 1.35 1.35 95 1014.7
20260502123718 15 281 11.3 12.9 0.33 0.94 0.94 88 1014.8
20260502123218 16 285 9.7 16.1 0.00 0.61 0.61 86 1014.4
20260502122718 16 285 4.8 8.0 0.00 0.61 0.61 84 1014.3
20260502122218 17 286 3.2 8.0 0.00 0.61 0.61 84 1014.2
20260502121719 17 316 1.6 1.6 0.00 0.61 0.61 84 1014.2
20260502121219 17 254 1.6 4.8 0.00 0.61 0.61 87 1014.4
20260502120719 16 211 3.2 4.8 0.00 0.61 0.61 85 1014.4
20260502120219 16 155 3.2 4.8 0.00 0.61 0.61 86 1014.4
20260502115718 16 253 1.6 4.8 0.00 0.61 0.61 89 1014.4
20260502115218 16 115 0.0 1.6 0.00 0.61 0.61 92 1014.5
20260502114719 15 202 1.6 1.6 0.03 0.61 0.61 92 1014.6
20260502114218 15 242 1.6 1.6 0.03 0.61 0.61 92 1014.7
20260502113718 15 102 1.6 3.2 0.03 0.61 0.61 94 1014.9
20260502113219 15 137 0.0 1.6 0.03 0.61 0.61 95 1014.9
20260502112719 15 275 1.6 1.6 0.03 0.61 0.61 95 1014.8
20260502112219 15 290 0.0 1.6 0.03 0.61 0.61 95 1014.9
20260502111719 14 211 0.0 1.6 0.03 0.61 0.61 95 1015.0
20260502111219 14 253 1.6 4.8 0.03 0.61 0.61 95 1015.0
20260502110719 15 259 3.2 4.8 0.03 0.61 0.61 94 1015.0
20260502110218 15 281 4.8 4.8 0.03 0.61 0.61 93 1015.1
20260502105718 15 288 8.0 8.0 0.03 0.61 0.61 92 1015.0
20260502105220 15 283 1.6 4.8 0.03 0.61 0.61 91 1014.9
20260502104720 15 256 3.2 8.0 0.00 0.61 0.61 90 1015.0
20260502104220 15 260 0.0 1.6 0.00 0.61 0.61 91 1015.0
20260502103720 15 245 0.0 1.6 0.00 0.61 0.61 91 1015.1
20260502103220 15 243 0.0 1.6 0.00 0.61 0.61 91 1015.1
20260502102720 15 132 0.0 1.6 0.00 0.61 0.61 92 1015.1
20260502102220 15 185 1.6 3.2 0.00 0.61 0.61 92 1015.1
20260502101720 15 226 0.0 1.6 0.00 0.61 0.61 94 1015.1
20260502101219 15 193 0.0 3.2 0.00 0.61 0.61 94 1015.1
20260502100719 15 263 0.0 1.6 0.00 0.61 0.61 95 1015.2
20260502100219 15 195 1.6 3.2 0.00 0.61 0.61 96 1015.2
20260502091220 12 82 0.0 0.0 0.15 0.61 0.61 99 1015.4
20260502090720 12 86 0.0 0.0 0.15 0.61 0.61 99 1015.5
20260502090219 12 139 0.0 0.0 0.18 0.61 0.61 99 1015.6
20260502071218 10 123 0.0 0.0 0.15 0.25 0.25 99 1015.7
20260502070718 10 123 0.0 0.0 0.15 0.25 0.25 99 1015.6
20260502070218 9 124 0.0 0.0 0.13 0.23 0.23 99 1015.5
20260502065718 10 131 0.0 0.0 0.13 0.20 0.20 99 1015.5
20260502065220 9 131 0.0 0.0 0.10 0.18 0.18 99 1015.4
20260502064720 9 131 0.0 0.0 0.10 0.18 0.18 99 1015.5
20260502064219 9 131 0.0 0.0 0.15 0.15 0.15 99 1015.5
20260502063719 9 131 0.0 0.0 0.15 0.15 0.15 99 1015.6
20260502063219 9 131 0.0 0.0 0.15 0.15 0.15 99 1015.7
20260502062718 9 131 0.0 0.0 0.15 0.15 0.15 99 1015.5
20260502062218 9 131 0.0 0.0 0.15 0.15 0.15 99 1015.6
20260502061718 9 127 0.0 0.0 0.13 0.13 0.13 99 1015.5
20260502061220 9 127 0.0 0.0 0.13 0.13 0.13 99 1015.5
20260502060720 8 127 0.0 0.0 0.13 0.13 0.13 99 1015.6
20260502060220 8 125 0.0 1.6 0.10 0.10 0.10 99 1015.6
20260502055720 8 41 0.0 0.0 0.08 0.08 0.08 99 1015.6
20260502055218 8 39 0.0 0.0 0.08 0.08 0.08 99 1015.5
20260502054718 8 265 0.0 0.0 0.08 0.08 0.08 98 1015.6
20260502054218 8 265 0.0 0.0 0.03 0.03 0.03 98 1015.7
20260502053718 8 297 0.0 0.0 0.00 0.00 0.00 98 1015.5
20260502053218 8 297 0.0 0.0 0.00 0.00 0.00 98 1015.5
20260502052720 8 297 0.0 0.0 0.00 0.00 0.00 98 1015.5
20260502052220 8 297 0.0 0.0 0.00 0.00 0.00 98 1015.5
20260502051720 8 297 0.0 0.0 0.00 0.00 0.00 98 1015.5
20260502051219 8 297 0.0 0.0 0.00 0.00 0.00 98 1015.6
20260502050718 8 297 0.0 0.0 0.00 0.00 0.00 98 1015.5